Weather History for Kalamata, Greece

Change the Weather History Date:

Wednesday, February 6, 2013

  Actual Average Record
Temperature  
Mean Temperature 53 °F -  
Max Temperature 62 °F 61 °F 66 °F (2001)
Min Temperature 44 °F 42 °F 28 °F (2007)
Degree Days  
Heating Degree Days 12    
Growing Degree Days 3 (Base 50)    
Moisture  
Dew Point 47 °F    
Average Humidity 78    
Maximum Humidity 94    
Minimum Humidity 48    
Precipitation  
Precipitation 0.00 in 0.13 in - ()
Sea Level Pressure  
Sea Level Pressure 29.80 in    
Wind  
Wind Speed 2 mph ()    
Max Wind Speed 12 mph    
Max Gust Speed -    
Visibility 5.5 miles    
Events Rain    
Averages and records for this station are not official NWS values.
T = Trace of Precipitation, MM = Missing Value Source: Averaged Metar Reports

Daily Weather History Graph

Daily Weather History Graph

Search for Another Location

Airport:

Trip Planner

Search our weather history database for the weather conditions in past years. The results will help you decide how hot, cold, wet, or windy it might be!

Date:

Astronomy

Feb. 06, 2013 Rise Set
Actual Time 7:30 AM EET 6:02 PM EET
Civil Twilight 7:03 AM EET 6:29 PM EET
Nautical Twilight 6:32 AM EET 7:00 PM EET
Astronomical Twilight 6:01 AM EET 7:30 PM EET
Moon 3:52 AM EET (2/6) 2:03 PM EET (2/6)
Length of Visible Light 11h 26m
Length of Day
10h 32m
Waning Crescent, 20% of the Moon is Illuminated
Feb 6
Waning Crescent
Feb 10
New
Feb 17
First Quarter
Feb 25
Full
Mar 4
Last Quarter

Hourly Weather History & Observations

Time (EET) Temp. Windchill Dew Point Humidity Pressure Visibility Wind Dir Wind Speed Gust Speed Precip Events Conditions
1:50 AM 48.2 °F - 46.4 °F 93% 29.83 in 6.2 mi Calm Calm - N/A   Scattered Clouds
4:50 AM 44.6 °F 42.2 °F 42.8 °F 93% 29.83 in 6.2 mi North 4.6 mph - N/A   Scattered Clouds
5:20 AM 46.4 °F - 44.6 °F 93% 29.83 in 5.0 mi Calm Calm - N/A   Scattered Clouds
5:50 AM 46.4 °F - 44.6 °F 93% 29.83 in 5.0 mi Calm Calm - N/A   Scattered Clouds
6:20 AM 46.4 °F - 44.6 °F 93% 29.83 in 5.0 mi Calm Calm - N/A   Scattered Clouds
6:50 AM 46.4 °F - 44.6 °F 93% 29.83 in 5.0 mi Calm Calm - N/A   Scattered Clouds
7:20 AM 44.6 °F - 42.8 °F 93% 29.83 in 3.1 mi Calm Calm - N/A   Partly Cloudy
7:50 AM 44.6 °F - 42.8 °F 93% 29.83 in 3.1 mi Calm Calm - N/A   Partly Cloudy
8:20 AM 46.4 °F 42.4 °F 44.6 °F 93% 29.83 in 6.2 mi NW 8.1 mph - N/A   Partly Cloudy
8:50 AM 50.0 °F - 48.2 °F 94% 29.83 in 6.2 mi Calm Calm - N/A   Partly Cloudy
9:20 AM 53.6 °F - 50.0 °F 88% 29.83 in 6.2 mi Calm Calm - N/A   Partly Cloudy
9:50 AM 57.2 °F - 48.2 °F 72% 29.83 in 6.2 mi Calm Calm - N/A   Partly Cloudy
10:20 AM 59.0 °F - 44.6 °F 59% 29.83 in 6.2 mi Calm Calm - N/A   Partly Cloudy
10:50 AM 60.8 °F - 44.6 °F 55% 29.83 in 6.2 mi Calm Calm - N/A   Partly Cloudy
11:20 AM 59.0 °F - 44.6 °F 59% 29.83 in 6.2 mi Calm Calm - N/A   Scattered Clouds
11:50 AM 60.8 °F - 44.6 °F 55% 29.83 in 6.2 mi SE 4.6 mph - N/A   Scattered Clouds
12:20 PM 62.6 °F - 42.8 °F 48% 29.80 in 6.2 mi SSE 5.8 mph - N/A   Scattered Clouds
12:50 PM 62.6 °F - 42.8 °F 48% 29.80 in 6.2 mi South 8.1 mph - N/A   Partly Cloudy
1:20 PM 62.6 °F - 42.8 °F 48% 29.77 in 6.2 mi SSE 9.2 mph - N/A   Partly Cloudy
1:50 PM 62.6 °F - 44.6 °F 52% 29.77 in 6.2 mi SSE 10.4 mph - N/A   Partly Cloudy
2:20 PM 60.8 °F - 44.6 °F 55% 29.77 in 6.2 mi SE 10.4 mph - N/A   Scattered Clouds
2:50 PM 59.0 °F - 44.6 °F 59% 29.77 in 6.2 mi SSE 11.5 mph - N/A   Mostly Cloudy
3:20 PM 59.0 °F - 46.4 °F 63% 29.77 in 6.2 mi SSE 10.4 mph - N/A   Overcast
3:50 PM 55.4 °F - 50.0 °F 82% 29.77 in 5.0 mi Calm Calm - N/A Rain Light Rain
4:20 PM 55.4 °F - 50.0 °F 82% 29.77 in 5.0 mi South 5.8 mph - N/A Rain Light Rain
4:50 PM 55.4 °F - 51.8 °F 88% 29.77 in 5.0 mi SE 6.9 mph - N/A Rain Light Rain
5:20 PM 53.6 °F - 50.0 °F 88% 29.77 in 5.0 mi Calm Calm - N/A   Mostly Cloudy
5:50 PM 55.4 °F - 50.0 °F 82% 29.77 in 5.0 mi SE 4.6 mph - N/A   Mostly Cloudy
6:20 PM 55.4 °F - 50.0 °F 82% 29.77 in 5.0 mi Calm Calm - N/A   Mostly Cloudy
6:50 PM 53.6 °F - 50.0 °F 88% 29.77 in 5.0 mi Calm Calm - N/A Rain Light Rain
7:20 PM 53.6 °F - 50.0 °F 88% 29.77 in 5.0 mi SE 4.6 mph - N/A   Mostly Cloudy
7:50 PM 53.6 °F - 50.0 °F 88% 29.80 in 5.0 mi Calm Calm - N/A Rain Light Rain
8:20 PM 53.6 °F - 50.0 °F 88% 29.80 in 5.0 mi Calm Calm - N/A Rain Light Rain
10:50 PM 51.8 °F - 48.2 °F 88% 29.80 in 6.2 mi SE 4.6 mph - N/A   Scattered Clouds